Regional Weather Roundup
Issued by NWS Spokane, WA

Current Version | Previous Version | Text Only | Print | Product List | Glossary On
Versions: 1 2 3 4 5 6 7 8 9 10 11 12 13 14 15 16 17 18 19 20 21 22 23 24 25 26 27 28 29 30 31 32 33 34 35 36 37 38 39 40 41 42 43 44 45 46 47 48 49 50
000
NZUS01 KOTX 032110
RWROTX
EASTERN WASHINGTON/NORTHERN IDAHO ROUNDUP
NATIONAL WEATHER SERVICE, SPOKANE WA
200 PM PDT MON AUG 03 2015

Note: "fair" indicated few or no clouds below 12,000 feet with no
significant weather and/or obstructions to visibility.

...NORTHEAST WASHINGTON AND NORTHERN IDAHO PANHANDLE...

CITY           SKY/WX    TMP DP  RH WIND       PRES   REMARKS
SPOKANE INTL   CLOUDY    86  41  20 SW7       29.83S
SPOKANE DOWNTO CLOUDY    84  42  22 NW3       29.81S
COEUR D ALENE  CLOUDY    84  43  23 W13       29.81S
DEER PARK      CLOUDY    85  43  22 S8        29.82S
SANDPOINT      CLOUDY    81  48  32 SE3       29.78S
BONNERS FERRY  FAIR      88  43  20 SW5       29.77F

...SOUTHEAST WASHINGTON AND SOUTHERN IDAHO PANHANDLE...

CITY           SKY/WX    TMP DP  RH WIND       PRES   REMARKS
WALLA WALLA    PTSUNNY   93  37  14 SW15      29.82R
PULLMAN/MOSCOW CLOUDY    85  39  19 W14       29.88S
LEWISTON       PTSUNNY   90  37  15 CALM      29.78F
LOWELL           N/A     97  43  15 CALM      29.76F HX  93

...COLUMBIA BASIN...

CITY           SKY/WX    TMP DP  RH WIND       PRES   REMARKS
EPHRATA        CLOUDY    91  45  20 SW23G31   29.76R
MOSES LAKE     CLOUDY    90  47  22 SW10      29.78R
TRI CITIES     CLOUDY    93  47  20 SW15      29.76S
HERMISTON      CLOUDY    91  47  21 W16G26    29.80S
PENDLETON      CLOUDY    87  42  20 NW16      29.85R

...EAST SLOPES CASCADES...

CITY           SKY/WX    TMP DP  RH WIND       PRES   REMARKS
THE DALLES     CLOUDY    79  51  37 NW22G31   29.84S
YAKIMA         CLOUDY    86  50  28 CALM      29.82R
ELLENSBURG     CLOUDY    81  45  28 NW20      29.86R
WENATCHEE      CLOUDY    85  41  21 NW16      29.80R
OMAK           CLOUDY    94  36  13 N10       29.74S

...SOUTHERN BRITISH COLUMBIA...

CITY           SKY/WX    TMP DP  RH WIND       PRES   REMARKS
CRANBROOK      PTSUNNY   90  37  15 SE5       29.80F

...WESTERN MONTANA...

CITY           SKY/WX    TMP DP  RH WIND       PRES   REMARKS
MISSOULA       PTSUNNY   91  38  15 W3        29.80F

...NEIGHBORING CITIES...

CITY           SKY/WX    TMP DP  RH WIND       PRES   REMARKS
SEATTLE        MOSUNNY   77  54  44 CALM      29.92F
CALGARY        CLOUDY    86  55  35 SE14      29.84F



USA.gov is the U.S. government's official web portal to all federal, state and local government web resources and services.